Location: Prescott
(34.5400°N, 112.4680°W)
Time: 21:04:34
(UTC-07:00)

ISS - Visible Passes

Search period start: 18 February 2018 00:00
Search period end: 28 February 2018 00:00
Orbit: 403 x 407 km, 51.6° (Epoch: 19 February)

Date Brightness Start Highest point End Pass type
(mag) Time Alt. Az. Time Alt. Az. Time Alt. Az.
24 Feb -1.3 06:12:05 10° S 06:14:43 22° SE 06:17:20 10° ENE visible
25 Feb -0.6 05:21:47 10° SE 05:22:38 11° SE 05:23:29 10° ESE visible
26 Feb -3.5 06:03:16 10° SW 06:06:27 67° SE 06:09:43 10° NE visible
27 Feb -2.2 05:13:56 29° SE 05:14:15 29° SE 05:17:09 10° ENE visible
